IR1ZYZ-3 Weather Reports


time (UTC)temp
F
wind
direction
speed
knots
gust
knots
rain 1hr
in
rain 24hr
in
rain mn
in
humidity
%
barometer
mb
20260505194351 54 0.0 0.0 0.00 0.00 0.00 10 1014.1
20260505193346 53 0.0 0.0 0.00 0.00 0.00 10 1013.9
20260505192341 53 0.0 0.0 0.00 0.00 0.00 10 1013.8
20260505191336 53 0.0 0.0 0.00 0.00 0.00 10 1013.7
20260505190330 53 0.0 0.0 0.00 0.00 0.00 10 1013.5
20260505185325 54 0.0 0.0 0.00 0.00 0.00 10 1013.6
20260505184319 54 0.0 0.0 0.00 0.00 0.00 10 1013.7
20260505183314 54 0.0 0.0 0.00 0.00 0.00 10 1013.6
20260505182309 54 0.0 0.0 0.00 0.00 0.00 10 1013.5
20260505181303 55 0.0 0.0 0.00 0.00 0.00 10 1013.5
20260505180259 55 0.0 0.0 0.00 0.00 0.00 10 1013.1
20260505175253 57 0.0 0.0 0.00 0.00 0.00 10 1013.3
20260505174249 58 0.0 0.0 0.00 0.00 0.00 10 1013.4
20260505173244 59 0.0 0.0 0.00 0.00 0.00 10 1013.4
20260505172239 59 0.0 0.0 0.00 0.00 0.00 10 1013.4
20260505171234 60 0.0 0.0 0.00 0.00 0.00 10 1013.4
20260505170229 61 0.0 0.0 0.00 0.00 0.00 10 1013.5
20260505165224 63 0.0 0.0 0.00 0.00 0.00 10 1013.3
20260505164218 69 0.0 0.0 0.00 0.00 0.00 85 1012.9
20260505163213 72 0.0 0.0 0.00 0.00 0.00 84 1012.7
20260505162208 72 0.0 0.0 0.00 0.00 0.00 87 1012.7
20260505161203 68 0.0 0.0 0.00 0.00 0.00 10 1012.9
20260505160158 64 0.0 0.0 0.00 0.00 0.00 10 1013.3
20260505153142 63 0.0 0.0 0.00 0.00 0.00 10 1013.5
20260505152137 66 0.0 0.0 0.00 0.00 0.00 10 1013.3
20260505151131 69 0.0 0.0 0.00 0.00 0.00 87 1013.0
20260505150126 75 0.0 0.0 0.00 0.00 0.00 79 1012.5
20260505125020 62 0.0 0.0 0.00 0.00 0.00 10 1013.9
20260505124016 65 0.0 0.0 0.00 0.00 0.00 10 1013.8
20260505123010 61 0.0 0.0 0.00 0.00 0.00 10 1014.0
20260505122005 62 0.0 0.0 0.00 0.00 0.00 10 1014.0
20260505121000 62 0.0 0.0 0.00 0.00 0.00 10 1013.9
20260505115954 63 0.0 0.0 0.00 0.00 0.00 10 1013.9
20260505114949 61 0.0 0.0 0.00 0.00 0.00 10 1014.0
20260505113944 62 0.0 0.0 0.00 0.00 0.00 10 1013.9
20260505112939 63 0.0 0.0 0.00 0.00 0.00 10 1013.9
20260505111933 61 0.0 0.0 0.00 0.00 0.00 10 1014.0
20260505110928 61 0.0 0.0 0.00 0.00 0.00 10 1014.1
20260505101902 60 0.0 0.0 0.00 0.00 0.00 10 1014.1
20260505100857 62 0.0 0.0 0.00 0.00 0.00 10 1013.9
20260505095851 58 0.0 0.0 0.00 0.00 0.00 10 1014.2
20260505094846 57 0.0 0.0 0.00 0.00 0.00 10 1014.4
20260505093841 58 0.0 0.0 0.00 0.00 0.00 10 1014.2
20260505092836 59 0.0 0.0 0.00 0.00 0.00 10 1014.1
20260505091831 59 0.0 0.0 0.00 0.00 0.00 10 1014.0
20260505090825 58 0.0 0.0 0.00 0.00 0.00 10 1014.1
20260505085820 58 0.0 0.0 0.00 0.00 0.00 10 1014.0
20260505084814 58 0.0 0.0 0.00 0.00 0.00 10 1013.9
20260505083809 58 0.0 0.0 0.00 0.00 0.00 10 1013.8
20260505082804 57 0.0 0.0 0.00 0.00 0.00 10 1013.8
20260505081758 58 0.0 0.0 0.00 0.00 0.00 10 1013.6
20260505080753 57 0.0 0.0 0.00 0.00 0.00 10 1013.8
20260505075748 57 0.0 0.0 0.00 0.00 0.00 10 1013.8
20260505074742 57 0.0 0.0 0.00 0.00 0.00 10 1013.7
20260505073737 56 0.0 0.0 0.00 0.00 0.00 10 1013.9
20260505072731 55 0.0 0.0 0.00 0.00 0.00 10 1013.9
20260505071726 58 0.0 0.0 0.00 0.00 0.00 10 1013.3
20260505070721 58 0.0 0.0 0.00 0.00 0.00 10 1013.0
20260505065716 59 0.0 0.0 0.00 0.00 0.00 10 1013.0
20260505064711 58 0.0 0.0 0.00 0.00 0.00 10 1012.9
20260505063706 57 0.0 0.0 0.00 0.00 0.00 10 1012.8
20260505062700 56 0.0 0.0 0.00 0.00 0.00 10 1012.9
20260505061655 56 0.0 0.0 0.00 0.00 0.00 10 1012.8
20260505060649 56 0.0 0.0 0.00 0.00 0.00 10 1013.0
20260505055642 56 0.0 0.0 0.00 0.00 0.00 10 1012.9
20260505054637 56 0.0 0.0 0.00 0.00 0.00 10 1012.8
20260505053631 55 0.0 0.0 0.00 0.00 0.00 10 1012.7
20260505052626 54 0.0 0.0 0.00 0.00 0.00 10 1012.5
20260505051619 53 0.0 0.0 0.00 0.00 0.00 10 1012.4
20260505050613 53 0.0 0.0 0.00 0.00 0.00 10 1012.4
20260505041546 54 0.0 0.0 0.00 0.00 0.00 10 1012.4
20260505040540 54 0.0 0.0 0.00 0.00 0.00 10 1012.3
20260505035534 54 0.0 0.0 0.00 0.00 0.00 10 1012.3
20260505034529 54 0.0 0.0 0.00 0.00 0.00 10 1012.4
20260505033523 54 0.0 0.0 0.00 0.00 0.00 10 1012.5
20260505032517 53 0.0 0.0 0.00 0.00 0.00 10 1012.3
20260505031511 54 0.0 0.0 0.00 0.00 0.00 10 1012.8
20260505030506 54 0.0 0.0 0.00 0.00 0.00 10 1013.1
20260505025501 54 0.0 0.0 0.00 0.00 0.00 10 1013.2
20260505024455 54 0.0 0.0 0.00 0.00 0.00 10 1013.1
20260505023450 54 0.0 0.0 0.00 0.00 0.00 10 1013.4
20260505022443 54 0.0 0.0 0.00 0.00 0.00 10 1013.9
20260505021437 54 0.0 0.0 0.00 0.00 0.00 10 1013.8
20260505020431 54 0.0 0.0 0.00 0.00 0.00 10 1013.5
20260505015426 54 0.0 0.0 0.00 0.00 0.00 10 1013.5
20260505014420 54 0.0 0.0 0.00 0.00 0.00 10 1013.3
20260505013415 54 0.0 0.0 0.00 0.00 0.00 10 1013.6
20260505012409 54 0.0 0.0 0.00 0.00 0.00 10 1013.8
20260505011404 54 0.0 0.0 0.00 0.00 0.00 10 1014.0
20260505010358 54 0.0 0.0 0.00 0.00 0.00 10 1014.2
20260505005353 54 0.0 0.0 0.00 0.00 0.00 10 1014.5
20260505004347 54 0.0 0.0 0.00 0.00 0.00 10 1014.8
20260505003341 54 0.0 0.0 0.00 0.00 0.00 10 1014.9
20260505002337 54 0.0 0.0 0.00 0.00 0.00 10 1015.0
20260505001332 54 0.0 0.0 0.00 0.00 0.00 10 1015.3
20260505000328 54 0.0 0.0 0.00 0.00 0.00 10 1015.1
20260504235323 54 0.0 0.0 0.00 0.00 0.00 10 1015.2
20260504234319 54 0.0 0.0 0.00 0.00 0.00 10 1015.2
20260504233314 54 0.0 0.0 0.00 0.00 0.00 10 1015.5
20260504232310 54 0.0 0.0 0.00 0.00 0.00 10 1015.5
20260504231306 54 0.0 0.0 0.00 0.00 0.00 10 1015.9
20260504230301 54 0.0 0.0 0.00 0.00 0.00 10 1015.8
20260504225257 55 0.0 0.0 0.00 0.00 0.00 10 1016.1
20260504224252 55 0.0 0.0 0.00 0.00 0.00 10 1016.2
20260504223248 55 0.0 0.0 0.00 0.00 0.00 10 1016.4
20260504222243 55 0.0 0.0 0.00 0.00 0.00 10 1016.7
20260504221239 55 0.0 0.0 0.00 0.00 0.00 10 1016.4
20260504220234 55 0.0 0.0 0.00 0.00 0.00 10 1016.5
20260504215230 55 0.0 0.0 0.00 0.00 0.00 10 1016.7
20260504214225 56 0.0 0.0 0.00 0.00 0.00 10 1017.0
20260504213219 56 0.0 0.0 0.00 0.00 0.00 10 1017.1
20260504212215 56 0.0 0.0 0.00 0.00 0.00 10 1017.1
20260504211210 56 0.0 0.0 0.00 0.00 0.00 10 1017.3
20260504210205 56 0.0 0.0 0.00 0.00 0.00 10 1017.4
20260504205159 56 0.0 0.0 0.00 0.00 0.00 10 1017.4
20260504204154 56 0.0 0.0 0.00 0.00 0.00 10 1017.5
20260504203150 56 0.0 0.0 0.00 0.00 0.00 10 1017.5
20260504202146 56 0.0 0.0 0.00 0.00 0.00 10 1017.7
20260504201141 56 0.0 0.0 0.00 0.00 0.00 10 1017.5
20260504200136 57 0.0 0.0 0.00 0.00 0.00 10 1017.4